{"data":{"norad_id":65202,"epoch":"2026-05-25T01:29:44.351232Z","epoch_age_seconds":65589,"freshness":"FRESH","line1":"1 65202U 25176E   26145.06231888  .00014432  00000+0  43734-3 0  9997","line2":"2 65202  53.1579 157.2646 0001244  87.8406 272.2739 15.34407080 44824","mean_motion":15.3440708,"eccentricity":0.0001244,"inclination_deg":53.1579,"raan_deg":157.2646,"arg_perigee_deg":87.8406,"mean_anomaly_deg":272.2739,"bstar":0.00043734,"rev_number":4482,"period_min":93.847325052749,"perigee_km":461.83119912787,"apogee_km":463.53319494409,"semimajor_km":6840.819197036,"source":"CELESTRAK","updated_at":"2026-05-25T13:38:20.718202Z"}}